TimeEDT,TemperatureF,Dew PointF,Humidity,Sea Level PressureIn,VisibilityMPH,Wind Direction,Wind SpeedMPH,Gust SpeedMPH,PrecipitationIn,Events,Conditions,WindDirDegrees,DateUTC
12:53 AM,68.0,64.9,90,30.09,7.0,NW,3.5,-,N/A,,Partly Cloudy,320,2014-05-13 04:53:00
2:21 AM,68.0,64.0,87,30.15,2.0,NNE,10.4,-,N/A,,Overcast,20,2014-05-13 06:21:00
2:31 AM,68.0,63.0,84,30.14,10.0,NE,11.5,-,N/A,,Overcast,40,2014-05-13 06:31:00
2:53 AM,68.0,61.0,78,30.11,10.0,NE,8.1,-,N/A,,Scattered Clouds,40,2014-05-13 06:53:00
3:53 AM,66.9,61.0,81,30.09,10.0,ESE,3.5,-,N/A,,Clear,110,2014-05-13 07:53:00
4:53 AM,66.9,59.0,76,30.09,10.0,East,3.5,-,N/A,,Clear,80,2014-05-13 08:53:00
5:53 AM,66.9,57.9,73,30.08,10.0,SE,4.6,-,N/A,,Partly Cloudy,130,2014-05-13 09:53:00
6:53 AM,68.0,57.9,70,30.09,10.0,Calm,Calm,-,N/A,,Clear,0,2014-05-13 10:53:00
7:53 AM,71.1,60.1,68,30.12,10.0,Calm,Calm,-,N/A,,Clear,0,2014-05-13 11:53:00
9:53 AM,79.0,64.0,60,30.12,10.0,Variable,3.5,-,N/A,,Clear,0,2014-05-13 13:53:00
10:53 AM,82.9,63.0,51,30.11,10.0,Variable,4.6,-,N/A,,Clear,0,2014-05-13 14:53:00
12:53 PM,87.1,62.1,43,30.09,10.0,SW,10.4,-,N/A,,Partly Cloudy,230,2014-05-13 16:53:00
1:53 PM,88.0,62.1,42,30.08,10.0,South,9.2,-,N/A,,Scattered Clouds,190,2014-05-13 17:53:00
2:53 PM,88.0,62.1,42,30.05,10.0,SW,10.4,16.1,N/A,,Scattered Clouds,230,2014-05-13 18:53:00
3:53 PM,91.0,60.1,35,30.05,10.0,SW,10.4,-,N/A,,Clear,230,2014-05-13 19:53:00
4:53 PM,89.1,59.0,36,30.04,10.0,Variable,5.8,-,N/A,,Clear,0,2014-05-13 20:53:00
5:53 PM,89.1,59.0,36,30.02,10.0,Variable,5.8,-,N/A,,Scattered Clouds,0,2014-05-13 21:53:00
6:53 PM,88.0,59.0,37,30.03,10.0,SSW,5.8,-,N/A,,Scattered Clouds,200,2014-05-13 22:53:00
7:53 PM,86.0,60.1,41,30.04,10.0,West,9.2,-,N/A,,Mostly Cloudy,280,2014-05-13 23:53:00
7:57 PM,82.9,61.0,47,30.08,2.5,Variable,4.6,19.6,0.08,Rain-Thunderstorm,Light Thunderstorms and Rain,0,2014-05-13 23:57:00
8:00 PM,79.0,63.0,58,30.09,0.8,NW,11.5,19.6,0.24,Rain-Thunderstorm,Light Thunderstorms and Rain,310,2014-05-14 00:00:00
8:03 PM,75.0,63.0,66,30.10,0.2,NE,17.3,28.8,0.48,Rain-Thunderstorm,Light Thunderstorms and Rain,40,2014-05-14 00:03:00
8:10 PM,75.9,62.1,62,30.09,0.5,Variable,6.9,28.8,0.62,Rain-Thunderstorm,Heavy Thunderstorms and Rain,0,2014-05-14 00:10:00
8:18 PM,75.9,61.0,60,30.08,2.0,ENE,5.8,-,0.66,Rain-Thunderstorm,Light Thunderstorms and Rain,70,2014-05-14 00:18:00
8:34 PM,73.0,64.9,76,30.09,10.0,East,4.6,-,0.66,,Scattered Clouds,90,2014-05-14 00:34:00
8:53 PM,73.9,66.0,76,30.07,10.0,East,5.8,-,0.66,,Partly Cloudy,90,2014-05-14 00:53:00
9:19 PM,73.0,62.1,68,30.14,10.0,SSW,11.5,23.0,0.01,Thunderstorm,Thunderstorm,200,2014-05-14 01:19:00
9:24 PM,70.0,63.0,78,30.15,1.8,South,12.7,21.9,0.21,Rain-Thunderstorm,Heavy Thunderstorms and Rain,190,2014-05-14 01:24:00
9:38 PM,68.0,63.0,84,30.13,3.0,SSE,11.5,-,0.48,Rain-Thunderstorm,Thunderstorms and Rain,150,2014-05-14 01:38:00
9:53 PM,66.9,63.0,87,30.12,8.0,South,6.9,-,0.50,Rain-Thunderstorm,Light Thunderstorms and Rain,170,2014-05-14 01:53:00
10:53 PM,69.1,61.0,75,30.12,7.0,ESE,15.0,-,0.08,Rain-Thunderstorm,Light Thunderstorms and Rain,120,2014-05-14 02:53:00
11:04 PM,69.1,60.1,73,30.16,7.0,SE,15.0,-,0.02,Rain,Rain,140,2014-05-14 03:04:00
11:53 PM,66.9,60.1,79,30.08,10.0,East,5.8,-,0.12,,Mostly Cloudy,90,2014-05-14 03:53:00